N101H LHBP-LQSA

Flight info

Callsign N101H
Flight time 1h 29m
Altitude 12000
Route FAHAZ DCT PIDON DCT NASSY Q571 GUBOK DCT BOSNA
Aircraft AEST/L-S/C

Departure

Time 2026-04-26 13:02
Airport Budapest Liszt Ferenc International Airport (LHBP)

Arrival

Time 2026-04-26 14:32
Airport Sarajevo International Airport (LQSA)
Time Latitude Longitude Altitude Speed Heading
2026-04-26 12:53 47.42988 19.24248 457 ft 0 kts 43°
2026-04-26 12:59 47.43007 19.24238 458 ft 9 kts 321°
2026-04-26 12:59 47.43063 19.24238 462 ft 10 kts 47°
2026-04-26 12:59 47.43058 19.24350 468 ft 16 kts 113°
2026-04-26 12:59 47.42990 19.24559 473 ft 27 kts 115°
2026-04-26 13:00 47.42930 19.24810 482 ft 25 kts 71°
2026-04-26 13:00 47.42994 19.24915 485 ft 0 kts 42°
2026-04-26 13:01 47.42998 19.24921 485 ft 7 kts 41°
2026-04-26 13:01 47.43070 19.24938 482 ft 10 kts 346°
2026-04-26 13:01 47.43251 19.24678 485 ft 72 kts 315°
2026-04-26 13:01 47.43674 19.24003 513 ft 104 kts 313°
2026-04-26 13:02 47.44265 19.23041 644 ft 138 kts 312°
2026-04-26 13:02 47.44886 19.22091 1182 ft 121 kts 316°
2026-04-26 13:02 47.45490 19.21242 1572 ft 122 kts 318°
2026-04-26 13:02 47.46105 19.20357 1856 ft 128 kts 313°
2026-04-26 13:03 47.46660 19.19373 2243 ft 122 kts 311°
2026-04-26 13:03 47.47175 19.18318 2489 ft 127 kts 308°
2026-04-26 13:03 47.47658 19.17234 2879 ft 127 kts 304°
2026-04-26 13:03 47.47962 19.15981 3114 ft 135 kts 283°
2026-04-26 13:04 47.47884 19.14587 3443 ft 140 kts 262°
2026-04-26 13:04 47.47515 19.13200 3668 ft 151 kts 250°
2026-04-26 13:04 47.46949 19.11876 4012 ft 151 kts 244°
2026-04-26 13:04 47.46474 19.10550 4481 ft 139 kts 270°
2026-04-26 13:05 47.46633 19.09298 4990 ft 118 kts 311°
2026-04-26 13:05 47.47243 19.08652 5327 ft 107 kts 328°
2026-04-26 13:05 47.47334 19.07670 5486 ft 122 kts 225°
2026-04-26 13:05 47.46490 19.07076 5765 ft 145 kts 214°
2026-04-26 13:06 47.45574 19.06436 6098 ft 142 kts 214°
2026-04-26 13:06 47.44642 19.05932 6319 ft 151 kts 204°
2026-04-26 13:06 47.43608 19.05608 6672 ft 149 kts 208°
2026-04-26 13:06 47.42666 19.05073 7022 ft 142 kts 216°
2026-04-26 13:07 47.41780 19.04483 7334 ft 138 kts 218°
2026-04-26 13:07 47.40917 19.03882 7615 ft 136 kts 218°
2026-04-26 13:07 47.40064 19.03289 7894 ft 135 kts 218°
2026-04-26 13:07 47.39221 19.02707 8149 ft 133 kts 218°
2026-04-26 13:08 47.38382 19.02127 8406 ft 132 kts 218°
2026-04-26 13:08 47.37549 19.01550 8629 ft 134 kts 218°
2026-04-26 13:08 47.36660 19.00928 8771 ft 148 kts 217°
2026-04-26 13:08 47.35696 19.00259 8979 ft 157 kts 216°
2026-04-26 13:09 47.34686 18.99563 9225 ft 162 kts 216°
2026-04-26 13:09 47.33666 18.98864 9492 ft 165 kts 215°
2026-04-26 13:09 47.32621 18.98152 9769 ft 166 kts 215°
2026-04-26 13:09 47.31573 18.97436 10052 ft 166 kts 215°
2026-04-26 13:10 47.30523 18.96716 10308 ft 166 kts 215°
2026-04-26 13:10 47.29475 18.96000 10558 ft 166 kts 215°
2026-04-26 13:10 47.28425 18.95282 10803 ft 166 kts 216°
2026-04-26 13:10 47.27378 18.94563 11035 ft 166 kts 215°
2026-04-26 13:11 47.26332 18.93849 11269 ft 166 kts 215°
2026-04-26 13:11 47.25295 18.93140 11497 ft 167 kts 216°
2026-04-26 13:11 47.24241 18.92420 11729 ft 167 kts 215°
2026-04-26 13:11 47.23155 18.91781 11892 ft 171 kts 204°
2026-04-26 13:12 47.21951 18.91543 12084 ft 177 kts 200°
2026-04-26 13:12 47.20879 18.90703 12193 ft 177 kts 229°
2026-04-26 13:12 47.19844 18.89645 12108 ft 186 kts 222°
2026-04-26 13:12 47.18711 18.88673 12082 ft 191 kts 218°
2026-04-26 13:13 47.17528 18.87743 12092 ft 194 kts 217°
2026-04-26 13:13 47.16331 18.86812 12089 ft 196 kts 217°
2026-04-26 13:13 47.15125 18.85870 12091 ft 197 kts 217°
2026-04-26 13:13 47.13908 18.84917 12087 ft 199 kts 217°
2026-04-26 13:14 47.12682 18.83956 12086 ft 200 kts 217°
2026-04-26 13:14 47.11471 18.83008 12082 ft 200 kts 217°
2026-04-26 13:14 47.10239 18.82046 12083 ft 200 kts 217°
2026-04-26 13:14 47.09011 18.81085 12085 ft 200 kts 217°
2026-04-26 13:15 47.07786 18.80129 12078 ft 198 kts 217°
2026-04-26 13:15 47.06567 18.79177 12086 ft 198 kts 217°
2026-04-26 13:15 47.05345 18.78222 12085 ft 199 kts 217°
2026-04-26 13:15 47.04538 18.77592 12086 ft 199 kts 217°
2026-04-26 13:16 47.02900 18.76313 12081 ft 199 kts 217°
2026-04-26 13:16 47.01677 18.75361 12087 ft 199 kts 217°
2026-04-26 13:16 47.00455 18.74410 12085 ft 199 kts 217°
2026-04-26 13:16 46.99230 18.73457 12084 ft 199 kts 217°
2026-04-26 13:17 46.96793 18.71557 12079 ft 199 kts 217°
2026-04-26 13:17 46.95570 18.70606 12078 ft 199 kts 217°
2026-04-26 13:18 46.93114 18.68699 12087 ft 200 kts 217°
2026-04-26 13:18 46.91884 18.67744 12086 ft 200 kts 217°
2026-04-26 13:18 46.89419 18.65832 12067 ft 200 kts 217°
2026-04-26 13:19 46.88194 18.64885 12085 ft 199 kts 217°
2026-04-26 13:19 46.86973 18.63939 12089 ft 199 kts 217°
2026-04-26 13:19 46.85766 18.63001 12077 ft 199 kts 217°
2026-04-26 13:19 46.84537 18.62051 12077 ft 199 kts 217°
2026-04-26 13:20 46.83313 18.61104 12078 ft 199 kts 217°
2026-04-26 13:20 46.82090 18.60158 12083 ft 199 kts 217°
2026-04-26 13:20 46.80866 18.59215 12082 ft 199 kts 217°
2026-04-26 13:20 46.79643 18.58268 12083 ft 199 kts 217°
2026-04-26 13:21 46.78415 18.57321 12085 ft 200 kts 217°
2026-04-26 13:21 46.77603 18.56694 12079 ft 200 kts 217°
2026-04-26 13:21 46.75973 18.55437 12080 ft 199 kts 217°
2026-04-26 13:21 46.74744 18.54491 12081 ft 199 kts 217°
2026-04-26 13:22 46.73517 18.53547 12072 ft 199 kts 217°
2026-04-26 13:22 46.72288 18.52599 12081 ft 199 kts 217°
2026-04-26 13:22 46.71063 18.51655 12084 ft 200 kts 217°
2026-04-26 13:22 46.69849 18.50720 12080 ft 200 kts 217°
2026-04-26 13:23 46.68618 18.49774 12085 ft 199 kts 217°
2026-04-26 13:23 46.67391 18.48832 12085 ft 199 kts 216°
2026-04-26 13:23 46.66161 18.47888 12084 ft 200 kts 216°
2026-04-26 13:23 46.64927 18.46942 12083 ft 201 kts 216°
2026-04-26 13:24 46.63689 18.45994 12082 ft 201 kts 216°
2026-04-26 13:24 46.62448 18.45041 12083 ft 201 kts 216°
2026-04-26 13:24 46.61209 18.44093 12086 ft 200 kts 216°
2026-04-26 13:24 46.59989 18.43157 12084 ft 201 kts 216°
2026-04-26 13:25 46.58750 18.42208 12078 ft 201 kts 216°
2026-04-26 13:25 46.57514 18.41264 12088 ft 200 kts 216°
2026-04-26 13:25 46.56280 18.40318 12086 ft 200 kts 216°
2026-04-26 13:25 46.55045 18.39375 12087 ft 201 kts 216°
2026-04-26 13:26 46.53806 18.38430 12087 ft 201 kts 216°
2026-04-26 13:26 46.52571 18.37486 12085 ft 200 kts 216°
2026-04-26 13:26 46.51336 18.36539 12071 ft 201 kts 216°
2026-04-26 13:26 46.50102 18.35596 12085 ft 200 kts 216°
2026-04-26 13:27 46.48870 18.34662 12089 ft 200 kts 216°
2026-04-26 13:27 46.47641 18.33727 12086 ft 200 kts 216°
2026-04-26 13:27 46.46410 18.32789 12089 ft 200 kts 216°
2026-04-26 13:27 46.45175 18.31848 12087 ft 200 kts 216°
2026-04-26 13:28 46.43940 18.30909 12086 ft 201 kts 216°
2026-04-26 13:28 46.42701 18.29967 12087 ft 201 kts 216°
2026-04-26 13:28 46.41462 18.29025 12087 ft 200 kts 216°
2026-04-26 13:28 46.40242 18.28099 12085 ft 201 kts 216°
2026-04-26 13:29 46.39005 18.27160 12087 ft 200 kts 216°
2026-04-26 13:29 46.38170 18.26527 12091 ft 201 kts 216°
2026-04-26 13:29 46.36529 18.25281 12093 ft 201 kts 216°
2026-04-26 13:29 46.35289 18.24342 12093 ft 201 kts 216°
2026-04-26 13:30 46.34048 18.23401 12094 ft 201 kts 216°
2026-04-26 13:30 46.32810 18.22462 12076 ft 199 kts 216°
2026-04-26 13:30 46.31587 18.21530 12089 ft 199 kts 215°
2026-04-26 13:30 46.30359 18.20606 12090 ft 199 kts 215°
2026-04-26 13:31 46.29126 18.19678 12093 ft 199 kts 215°
2026-04-26 13:31 46.27916 18.18763 12089 ft 199 kts 215°
2026-04-26 13:31 46.26688 18.17835 12088 ft 199 kts 215°
2026-04-26 13:31 46.25459 18.16908 12087 ft 199 kts 215°
2026-04-26 13:32 46.24227 18.15981 12091 ft 200 kts 215°
2026-04-26 13:32 46.22997 18.15051 12087 ft 199 kts 215°
2026-04-26 13:32 46.21768 18.14124 12089 ft 200 kts 215°
2026-04-26 13:32 46.20537 18.13194 12090 ft 200 kts 215°
2026-04-26 13:33 46.19307 18.12268 12088 ft 200 kts 215°
2026-04-26 13:33 46.18071 18.11340 12090 ft 199 kts 215°
2026-04-26 13:33 46.16847 18.10420 12087 ft 197 kts 215°
2026-04-26 13:33 46.15627 18.09503 12094 ft 198 kts 215°
2026-04-26 13:34 46.14419 18.08594 12081 ft 198 kts 215°
2026-04-26 13:34 46.13199 18.07676 12088 ft 197 kts 215°
2026-04-26 13:34 46.11907 18.07039 12082 ft 198 kts 194°
2026-04-26 13:34 46.11440 18.06989 12093 ft 199 kts 186°
2026-04-26 13:35 46.09085 18.07067 12092 ft 206 kts 183°
2026-04-26 13:35 46.07644 18.07143 12094 ft 207 kts 183°
2026-04-26 13:35 46.06685 18.07189 12092 ft 208 kts 183°
2026-04-26 13:35 46.05233 18.07257 12090 ft 209 kts 183°
2026-04-26 13:36 46.03776 18.07324 12096 ft 209 kts 183°
2026-04-26 13:36 46.02317 18.07391 12089 ft 210 kts 183°
2026-04-26 13:36 46.00382 18.07478 12089 ft 210 kts 183°
2026-04-26 13:36 45.98919 18.07544 12085 ft 210 kts 183°
2026-04-26 13:37 45.97457 18.07610 12090 ft 210 kts 183°
2026-04-26 13:37 45.96467 18.07655 12099 ft 210 kts 183°
2026-04-26 13:37 45.95018 18.07721 12095 ft 211 kts 183°
2026-04-26 13:37 45.93543 18.07789 12079 ft 212 kts 183°
2026-04-26 13:38 45.92072 18.07852 12087 ft 211 kts 183°
2026-04-26 13:38 45.90603 18.07918 12092 ft 211 kts 183°
2026-04-26 13:38 45.89129 18.07985 12086 ft 212 kts 183°
2026-04-26 13:38 45.87658 18.08052 12090 ft 211 kts 183°
2026-04-26 13:39 45.86186 18.08118 12089 ft 212 kts 183°
2026-04-26 13:39 45.84713 18.08185 12088 ft 212 kts 183°
2026-04-26 13:39 45.83238 18.08252 12087 ft 212 kts 183°
2026-04-26 13:39 45.81763 18.08318 12079 ft 212 kts 183°
2026-04-26 13:40 45.80301 18.08383 12081 ft 212 kts 183°
2026-04-26 13:40 45.78828 18.08448 12085 ft 211 kts 183°
2026-04-26 13:40 45.77356 18.08514 12083 ft 211 kts 183°
2026-04-26 13:40 45.75887 18.08581 12081 ft 212 kts 183°
2026-04-26 13:41 45.74411 18.08647 12078 ft 212 kts 183°
2026-04-26 13:41 45.72939 18.08712 12072 ft 212 kts 183°
2026-04-26 13:41 45.71459 18.08774 12078 ft 212 kts 182°
2026-04-26 13:41 45.70008 18.08842 12078 ft 211 kts 182°
2026-04-26 13:42 45.68535 18.08909 12073 ft 212 kts 182°
2026-04-26 13:42 45.67060 18.08976 12076 ft 212 kts 182°
2026-04-26 13:42 45.65586 18.09042 12078 ft 211 kts 182°
2026-04-26 13:42 45.64113 18.09105 12072 ft 211 kts 182°
2026-04-26 13:43 45.62644 18.09170 12076 ft 211 kts 182°
2026-04-26 13:43 45.61172 18.09237 12076 ft 211 kts 182°
2026-04-26 13:43 45.59706 18.09303 12077 ft 211 kts 182°
2026-04-26 13:43 45.58251 18.09369 12080 ft 212 kts 182°
2026-04-26 13:44 45.56770 18.09436 12073 ft 212 kts 182°
2026-04-26 13:44 45.55292 18.09500 12076 ft 212 kts 182°
2026-04-26 13:44 45.53815 18.09565 12071 ft 212 kts 182°
2026-04-26 13:44 45.52338 18.09630 12078 ft 212 kts 182°
2026-04-26 13:45 45.50864 18.09690 12065 ft 211 kts 182°
2026-04-26 13:45 45.49398 18.09756 12076 ft 211 kts 182°
2026-04-26 13:45 45.47933 18.09824 12077 ft 211 kts 182°
2026-04-26 13:45 45.46465 18.09890 12069 ft 211 kts 182°
2026-04-26 13:46 45.45000 18.09905 12080 ft 211 kts 190°
2026-04-26 13:46 45.43622 18.09349 12069 ft 207 kts 207°
2026-04-26 13:46 45.42300 18.08576 12074 ft 205 kts 208°
2026-04-26 13:46 45.40991 18.07792 12068 ft 204 kts 208°
2026-04-26 13:47 45.39684 18.07005 12071 ft 204 kts 208°
2026-04-26 13:47 45.38381 18.06225 12075 ft 203 kts 208°
2026-04-26 13:47 45.37073 18.05445 12073 ft 203 kts 208°
2026-04-26 13:47 45.35770 18.04670 12078 ft 203 kts 208°
2026-04-26 13:48 45.34466 18.03895 12074 ft 203 kts 208°
2026-04-26 13:48 45.33174 18.03127 12069 ft 204 kts 208°
2026-04-26 13:48 45.31850 18.02341 12072 ft 203 kts 208°
2026-04-26 13:48 45.30557 18.01573 12076 ft 203 kts 208°
2026-04-26 13:49 45.29251 18.00799 12073 ft 203 kts 208°
2026-04-26 13:49 45.27946 18.00025 12072 ft 203 kts 208°
2026-04-26 13:49 45.26642 17.99252 12076 ft 203 kts 208°
2026-04-26 13:49 45.25341 17.98479 12069 ft 202 kts 208°
2026-04-26 13:50 45.24040 17.97710 12071 ft 202 kts 208°
2026-04-26 13:50 45.22746 17.96945 12073 ft 201 kts 208°
2026-04-26 13:50 45.21451 17.96179 12073 ft 202 kts 208°
2026-04-26 13:50 45.20153 17.95411 12074 ft 202 kts 208°
2026-04-26 13:51 45.18869 17.94650 12070 ft 202 kts 208°
2026-04-26 13:51 45.17566 17.93880 12070 ft 202 kts 208°
2026-04-26 13:51 45.16269 17.93114 12072 ft 202 kts 208°
2026-04-26 13:51 45.14967 17.92347 12072 ft 202 kts 208°
2026-04-26 13:52 45.13676 17.91580 12073 ft 200 kts 208°
2026-04-26 13:52 45.12384 17.90820 12073 ft 201 kts 207°
2026-04-26 13:52 45.11090 17.90061 12074 ft 201 kts 208°
2026-04-26 13:52 45.09803 17.89302 12080 ft 201 kts 208°
2026-04-26 13:53 45.08524 17.88549 12071 ft 202 kts 207°
2026-04-26 13:53 45.07231 17.87788 12072 ft 201 kts 207°
2026-04-26 13:53 45.05934 17.87026 12070 ft 201 kts 207°
2026-04-26 13:53 45.04630 17.86286 12056 ft 202 kts 202°
2026-04-26 13:54 45.03244 17.85972 12071 ft 203 kts 191°
2026-04-26 13:54 45.01825 17.85751 12064 ft 205 kts 190°
2026-04-26 13:54 45.00403 17.85539 12069 ft 205 kts 190°
2026-04-26 13:55 44.97546 17.85112 12072 ft 208 kts 191°
2026-04-26 13:55 44.96591 17.84966 12066 ft 208 kts 191°
2026-04-26 13:55 44.93268 17.84447 12071 ft 206 kts 190°
2026-04-26 13:56 44.91839 17.84233 12069 ft 206 kts 190°
2026-04-26 13:56 44.90413 17.84019 12068 ft 206 kts 190°
2026-04-26 13:56 44.88990 17.83806 12067 ft 206 kts 190°
2026-04-26 13:56 44.87566 17.83589 12068 ft 205 kts 190°
2026-04-26 13:57 44.86139 17.83370 12064 ft 206 kts 190°
2026-04-26 13:57 44.84711 17.83150 12063 ft 206 kts 190°
2026-04-26 13:57 44.83282 17.82935 12061 ft 206 kts 190°
2026-04-26 13:57 44.81873 17.82723 12063 ft 206 kts 190°
2026-04-26 13:58 44.80426 17.82503 12068 ft 206 kts 190°
2026-04-26 13:58 44.78999 17.82284 12064 ft 207 kts 190°
2026-04-26 13:58 44.77569 17.82067 12064 ft 206 kts 190°
2026-04-26 13:58 44.76143 17.81854 12067 ft 207 kts 190°
2026-04-26 13:59 44.74736 17.81640 12058 ft 205 kts 190°
2026-04-26 13:59 44.73316 17.81423 12062 ft 205 kts 190°
2026-04-26 13:59 44.71898 17.81209 12061 ft 205 kts 190°
2026-04-26 14:00 44.67638 17.80565 12068 ft 205 kts 190°
2026-04-26 14:00 44.66217 17.80351 12065 ft 206 kts 190°
2026-04-26 14:00 44.65274 17.80209 12067 ft 205 kts 190°
2026-04-26 14:01 44.63371 17.79921 12068 ft 205 kts 190°
2026-04-26 14:01 44.61951 17.79708 12056 ft 205 kts 190°
2026-04-26 14:01 44.60532 17.79493 12063 ft 205 kts 189°
2026-04-26 14:01 44.59114 17.79280 12055 ft 205 kts 189°
2026-04-26 14:02 44.57713 17.79072 12061 ft 205 kts 190°
2026-04-26 14:02 44.56294 17.78859 12054 ft 205 kts 190°
2026-04-26 14:02 44.54869 17.78643 12053 ft 204 kts 190°
2026-04-26 14:02 44.53462 17.78430 12067 ft 203 kts 190°
2026-04-26 14:03 44.52054 17.78220 12063 ft 203 kts 190°
2026-04-26 14:03 44.50648 17.78009 12062 ft 203 kts 190°
2026-04-26 14:03 44.49240 17.77793 12062 ft 204 kts 190°
2026-04-26 14:03 44.47827 17.77584 12054 ft 204 kts 190°
2026-04-26 14:04 44.46420 17.77373 12060 ft 204 kts 190°
2026-04-26 14:04 44.45034 17.77162 12062 ft 203 kts 189°
2026-04-26 14:04 44.43629 17.76952 12063 ft 203 kts 189°
2026-04-26 14:04 44.42223 17.76749 12053 ft 201 kts 189°
2026-04-26 14:05 44.40835 17.76541 12062 ft 201 kts 190°
2026-04-26 14:05 44.39424 17.76320 11933 ft 206 kts 189°
2026-04-26 14:05 44.37964 17.76362 11688 ft 216 kts 170°
2026-04-26 14:05 44.36577 17.77189 11495 ft 220 kts 146°
2026-04-26 14:06 44.35483 17.78690 11304 ft 222 kts 128°
2026-04-26 14:06 44.34508 17.80385 11104 ft 225 kts 127°
2026-04-26 14:06 44.33537 17.82108 10932 ft 226 kts 127°
2026-04-26 14:06 44.32559 17.83841 10769 ft 228 kts 128°
2026-04-26 14:07 44.31573 17.85563 10555 ft 230 kts 128°
2026-04-26 14:07 44.30566 17.87308 10378 ft 232 kts 128°
2026-04-26 14:07 44.29543 17.89100 10015 ft 237 kts 127°
2026-04-26 14:07 44.28517 17.90902 9735 ft 236 kts 128°
2026-04-26 14:08 44.27487 17.92687 9425 ft 237 kts 127°
2026-04-26 14:08 44.26451 17.94503 9137 ft 241 kts 127°
2026-04-26 14:08 44.25407 17.96316 8863 ft 239 kts 128°
2026-04-26 14:08 44.24367 17.98117 8607 ft 238 kts 127°
2026-04-26 14:09 44.23321 17.99919 8344 ft 238 kts 127°
2026-04-26 14:09 44.22309 18.01692 8104 ft 236 kts 126°
2026-04-26 14:09 44.21289 18.03476 7858 ft 234 kts 126°
2026-04-26 14:09 44.20283 18.05233 7609 ft 231 kts 127°
2026-04-26 14:10 44.19266 18.06977 7370 ft 233 kts 127°
2026-04-26 14:10 44.18243 18.08731 7123 ft 231 kts 126°
2026-04-26 14:10 44.17238 18.10490 6849 ft 232 kts 126°
2026-04-26 14:10 44.16222 18.12250 6596 ft 233 kts 126°
2026-04-26 14:11 44.14233 18.15714 6415 ft 223 kts 126°
2026-04-26 14:11 44.13272 18.17358 6445 ft 217 kts 126°
2026-04-26 14:11 44.12341 18.18981 6449 ft 211 kts 126°
2026-04-26 14:12 44.11426 18.20545 6431 ft 212 kts 126°
2026-04-26 14:12 44.10506 18.22127 6423 ft 208 kts 124°
2026-04-26 14:12 44.09613 18.23681 6425 ft 204 kts 125°
2026-04-26 14:12 44.08721 18.25205 6444 ft 203 kts 125°
2026-04-26 14:13 44.06960 18.28248 6431 ft 202 kts 126°
2026-04-26 14:13 44.06091 18.29753 6431 ft 198 kts 126°
2026-04-26 14:13 44.05223 18.31245 6438 ft 199 kts 126°
2026-04-26 14:14 44.04350 18.32737 6431 ft 199 kts 125°
2026-04-26 14:14 44.03467 18.34260 6433 ft 204 kts 125°
2026-04-26 14:14 44.02569 18.35791 6413 ft 204 kts 126°
2026-04-26 14:14 44.01681 18.37310 6426 ft 201 kts 124°
2026-04-26 14:15 44.00820 18.38812 6405 ft 197 kts 124°
2026-04-26 14:15 43.99959 18.40280 6438 ft 201 kts 126°
2026-04-26 14:15 43.99083 18.41791 6418 ft 200 kts 125°
2026-04-26 14:15 43.98220 18.43284 6421 ft 198 kts 126°
2026-04-26 14:16 43.97336 18.44768 6423 ft 199 kts 126°
2026-04-26 14:16 43.96457 18.46270 6423 ft 200 kts 126°
2026-04-26 14:16 43.95581 18.47759 6423 ft 199 kts 126°
2026-04-26 14:16 43.94712 18.49239 6425 ft 197 kts 124°
2026-04-26 14:17 43.93850 18.50740 6434 ft 199 kts 125°
2026-04-26 14:17 43.92975 18.52241 6418 ft 200 kts 126°
2026-04-26 14:17 43.92104 18.53725 6426 ft 203 kts 126°
2026-04-26 14:17 43.91209 18.55248 6420 ft 204 kts 126°
2026-04-26 14:18 43.90312 18.56775 6426 ft 204 kts 126°
2026-04-26 14:18 43.89412 18.58302 6401 ft 201 kts 126°
2026-04-26 14:18 43.88534 18.59801 6420 ft 200 kts 126°
2026-04-26 14:18 43.87647 18.61302 6428 ft 204 kts 124°
2026-04-26 14:19 43.86773 18.62812 6421 ft 202 kts 125°
2026-04-26 14:19 43.85879 18.64326 6430 ft 200 kts 126°
2026-04-26 14:19 43.84995 18.65826 6426 ft 200 kts 126°
2026-04-26 14:19 43.84133 18.67310 6422 ft 201 kts 128°
2026-04-26 14:20 43.83232 18.68812 6427 ft 205 kts 126°
2026-04-26 14:20 43.82335 18.70335 6453 ft 204 kts 126°
2026-04-26 14:20 43.81422 18.71875 6426 ft 208 kts 126°
2026-04-26 14:20 43.80503 18.73412 6435 ft 207 kts 126°
2026-04-26 14:21 43.79613 18.74971 6422 ft 202 kts 126°
2026-04-26 14:21 43.78726 18.76476 6430 ft 203 kts 127°
2026-04-26 14:21 43.77818 18.77996 6333 ft 207 kts 127°
2026-04-26 14:21 43.76906 18.79551 6204 ft 210 kts 127°
2026-04-26 14:22 43.75842 18.80973 6035 ft 218 kts 143°
2026-04-26 14:22 43.74445 18.81796 5860 ft 226 kts 166°
2026-04-26 14:22 43.72865 18.81836 5664 ft 228 kts 189°
2026-04-26 14:22 43.71404 18.81056 5550 ft 223 kts 212°
2026-04-26 14:23 43.70545 18.80325 5580 ft 216 kts 213°
2026-04-26 14:23 43.69272 18.79229 5599 ft 214 kts 213°
2026-04-26 14:23 43.67990 18.78119 5586 ft 219 kts 214°
2026-04-26 14:23 43.66275 18.76616 5590 ft 219 kts 214°
2026-04-26 14:24 43.65413 18.75852 5578 ft 219 kts 214°
2026-04-26 14:24 43.64171 18.74671 5591 ft 217 kts 226°
2026-04-26 14:24 43.63264 18.73023 5584 ft 214 kts 245°
2026-04-26 14:24 43.62795 18.71077 5585 ft 213 kts 264°
2026-04-26 14:25 43.62816 18.69057 5576 ft 209 kts 283°
2026-04-26 14:25 43.63165 18.67112 5594 ft 207 kts 290°
2026-04-26 14:25 43.63575 18.65220 5572 ft 205 kts 290°
2026-04-26 14:25 43.63969 18.63333 5587 ft 205 kts 290°
2026-04-26 14:26 43.64369 18.61440 5573 ft 203 kts 290°
2026-04-26 14:26 43.64873 18.59641 5574 ft 198 kts 304°
2026-04-26 14:26 43.65735 18.58173 5582 ft 197 kts 315°
2026-04-26 14:26 43.66640 18.56809 5566 ft 192 kts 314°
2026-04-26 14:27 43.67560 18.55448 5580 ft 196 kts 316°
2026-04-26 14:27 43.68485 18.54072 5572 ft 194 kts 316°
2026-04-26 14:27 43.69384 18.52707 5569 ft 191 kts 317°
2026-04-26 14:27 43.70257 18.51506 5961 ft 169 kts 323°
2026-04-26 14:28 43.71262 18.50650 5971 ft 172 kts 330°
2026-04-26 14:28 43.72158 18.49475 5850 ft 185 kts 317°
2026-04-26 14:28 43.73165 18.48267 5712 ft 199 kts 337°
2026-04-26 14:28 43.74434 18.47512 5523 ft 196 kts 342°
2026-04-26 14:29 43.75669 18.46750 5288 ft 195 kts 332°
2026-04-26 14:29 43.76741 18.45550 5072 ft 197 kts 319°
2026-04-26 14:29 43.77704 18.44242 5068 ft 192 kts 316°
2026-04-26 14:29 43.78463 18.42828 4727 ft 182 kts 307°
2026-04-26 14:30 43.79163 18.41340 4174 ft 186 kts 307°
2026-04-26 14:30 43.79881 18.39861 3616 ft 175 kts 303°
2026-04-26 14:30 43.80416 18.38546 2761 ft 142 kts 301°
2026-04-26 14:30 43.80821 18.37515 2335 ft 108 kts 302°
2026-04-26 14:31 43.81170 18.36581 2081 ft 107 kts 295°
2026-04-26 14:31 43.81517 18.35689 1898 ft 99 kts 294°
2026-04-26 14:31 43.81791 18.34925 1795 ft 83 kts 297°
2026-04-26 14:31 43.82049 18.34240 1711 ft 77 kts 295°
2026-04-26 14:32 43.82245 18.33722 1686 ft 28 kts 300°
2026-04-26 14:32 43.82327 18.33673 1686 ft 0 kts 344°